Weather in Zavolzh'e

Russia / Yaroslavl Oblast     57°40′14″N   40°00′48″E
temp.,
°C
wind,
m/s
gust,
m/s
humid.,
%
clouds,
%
prec.,
mm/h
press.,
hPa
HPBL,
m
15 april, thu
thu1500:00+11wnw226974 0.0 101816
03:00+9nne359079 0.0 101891
06:00+9ne5893100 0.0 1019371
09:00+9ne5886100 0.0 1020520
12:00+10ne6978100 0.0 1021637
15:00+10ne71075100 0.0 1022782
18:00+9ne71276100 0.0 1023685
21:00+6ne61481100 0.0 1024553
16 april, fri
fri1600:00+5ene6147681 0.0 1025526
03:00+4ene61383100 0.0 1025498
06:00+3ene6137899 0.0 1026427
09:00+6ene71063100 0.0 1027551
12:00+10ene7851100 0.0 1027877
15:00+12ene784097 0.0 10261132
18:00+11ene6104238 0.0 1027709
21:00+7ene5135850 0.0 1028340
17 april, sat
sat1700:00+5ene5136756 0.0 1029296
03:00+3ene5127345 0.0 1029261
06:00+2ene511778 0.0 1030268
09:00+7ene610545 0.0 1031594
12:00+11ene68403 0.0 10301242
15:00+12ene67365 0.0 10291460
18:00+11ne57450 0.0 1029499
21:00+6ne48650 0.0 1030142
18 april, sun
sun1800:00+4ne49750 0.0 1030164
03:00+3ne38785 0.0 1031143
06:00+3ne377978 0.0 1032152
09:00+8ne46579 0.0 1032453
12:00+11ne464419 0.0 10311316
15:00+13ne564192 0.0 10311569
18:00+11ne4750100 0.0 1031447
21:00+7ne376692 0.0 1032128
19 april, mon
mon1900:00+5e4975100 0.0 1034368
03:00+4e3780100 0.0 1035204
06:00+4ese3778100 0.0 1036268
09:00+6ese466376 0.0 1036634
12:00+9se564083 0.0 10361349
15:00+10se553466 0.0 10351545
18:00+9ese464075 0.0 10341063
21:00+5ese4105533 0.0 1035235